Spokane, WA (99211)

1:12 AM PST on February 14, 2016 (GMT -0800)
I-90 & Sprague Ave | | Change Station
CLOSE
Current Station
Personal Weather Station
Location: Spokane Valley, WA
Elevation: 1991 ft
Nearby Weather Stations

Elev 1991 ft 47.65 °N, 117.31 °W | Updated 10 seconds ago

Overcast
Overcast
41.4 °F
Feels Like 39 °F
N
3.8
Wind Variable Wind from WSW
Gusts 3.8 mph

Today
High -- | Low -- °F
--% Chance of Precip.
Yesterday
High -- | Low -- °F
Precip. -- in
Pressure 30.09 in
Visibility 10.0 miles
Clouds Overcast 1400 ft
Windchill 39 °F
Dew Point 37 °F
Humidity 83%
Rainfall 0.00 in
Snow Depth Not available.
6:57 AM 5:10 PM
Waxing Crescent, 39% visible
METAR KSFF 140853Z AUTO 25005KT 10SM OVC014 06/03 A3007 RMK AO2 SLP187 60001 T00560028 55015
Pressure 30.09 in
Visibility 10.0 miles
Clouds Overcast 1400 ft
Windchill 39 °F
Dew Point 37 °F
Humidity 83%
Rainfall 0.00 in
Snow Depth Not available.
6:57 AM 5:10 PM
Waxing Crescent, 39% visible
METAR KSFF 140853Z AUTO 25005KT 10SM OVC014 06/03 A3007 RMK AO2 SLP187 60001 T00560028 55015

10-Day Weather Forecast

Almanac

Astronomy

Feb. 14, 2016 Rise Set
Actual Time
Civil Twilight
Nautical Twilight
Astronomical Twilight
Moon
Length of Visible Light
Length of Day
Tomorrow will be .
, % of the Moon is Illuminated

Today's Extremes

State Highs State Lows

Community

WunderPhotos

Upload Photos

1,892,763 photos uploaded!

WunderBlog® & News

Nearby

Air Quality

  Air Quality AQ Index Pollutant
Not available.

Snow Depth

Station Depth Elevation

Earthquake Activity

City Distance Mag. Time & Date
Minimum magnitude displayed is 2.5.

Coastal Water Temperatures

Place Temperature

Stations

Nearby Weather Stations

Station Location Temp. Windchill Dew Point Humidity Wind Precip. Elev Updated Type
                   

Watches & Warnings

There are currently no watches in effect.